Theta_e
323 321 325 322 304 303 297 299 306 305 306 308 309 306 311 321 316 310 332 335 337 338 341 347 346 347 347 346 346 345 345 346 346 345 345 345 344 343 341 338 338 337 334 335 333 334 332 332 330
319 320 324 317 299 294 296 302 303 305 305 308 310 312 312 316 316 320 324 322 338 338 341 346 343 346 346 346 346 347 346 346 345 344 344 344 344 342 341 339 337 335 334 335 334 334 331 330 330
317 318 313 306 300 295 295 301 302 303 305 305 307 323 313 305 311 311 315 320 338 340 342 345 343 346 346 345 344 347 347 346 346 344 343 343 342 341 340 337 336 336 336 335 334 332 330 330 328
319 318 313 301 296 300 301 301 302 302 305 306 306 308 307 311 309 313 321 326 338 339 342 342 343 344 345 345 345 346 346 345 343 342 342 341 341 339 337 336 336 337 335 334 332 331 330 328 327
317 313 301 297 297 301 301 301 300 300 301 303 308 305 312 310 313 313 315 325 334 338 340 343 342 343 344 344 345 344 345 345 344 344 344 343 341 339 337 337 338 335 335 333 332 330 330 328 327
307 307 296 294 295 298 300 302 300 300 301 302 303 305 310 313 310 311 313 317 321 329 339 341 336 335 340 341 343 343 344 344 344 342 342 342 340 339 338 336 337 333 334 332 330 329 329 328 327
302 299 295 294 294 295 298 303 300 300 300 300 304 303 309 310 310 311 312 314 318 318 318 323 340 339 331 335 337 339 342 343 342 339 339 338 338 337 338 336 335 334 333 332 330 329 328 327 327
306 302 294 294 293 293 299 301 302 301 300 304 306 300 301 306 309 310 312 313 314 316 315 315 323 330 340 340 331 333 337 338 338 336 334 333 333 333 333 331 333 332 335 332 330 329 328 327 327
304 297 293 293 293 295 301 299 303 303 302 302 303 303 305 307 308 308 309 311 312 313 316 315 317 318 322 338 336 329 331 332 332 333 329 329 335 334 330 327 330 332 332 333 330 329 328 328 327
301 297 293 298 299 298 300 299 300 300 300 301 302 305 305 306 306 305 306 306 308 310 313 315 315 316 318 321 337 338 338 340 339 338 338 336 334 334 330 325 325 329 327 330 330 329 329 326 325
299 295 298 298 301 301 299 299 301 299 298 299 298 300 303 304 304 304 305 306 307 309 311 313 315 315 315 318 322 336 339 340 338 337 338 337 333 329 328 329 328 328 321 325 326 328 326 326 326
296 299 299 299 300 300 298 300 298 299 298 301 301 302 302 302 302 303 304 305 307 309 310 313 314 314 316 316 319 323 336 338 334 334 336 336 332 327 328 327 327 327 325 325 325 326 326 325 324
297 298 299 300 300 300 299 297 298 298 300 301 301 301 301 302 302 304 305 307 308 308 310 311 312 313 314 315 318 320 328 334 334 332 333 335 333 326 326 324 327 326 325 325 325 326 324 323 322
299 299 298 299 299 299 297 297 298 299 300 300 300 300 301 301 302 303 304 305 305 307 309 311 311 312 314 314 316 318 324 332 334 333 331 332 333 329 328 327 326 326 325 325 325 324 322 322 322
299 295 297 297 298 298 298 294 295 298 299 298 298 300 300 300 302 301 301 304 305 305 307 309 310 310 310 310 313 316 320 325 331 329 329 329 329 330 329 327 325 326 326 325 325 324 324 323 323
295 295 291 295 297 298 296 291 295 298 297 297 297 298 299 300 301 302 302 304 305 305 306 307 308 309 309 309 310 311 318 322 329 328 328 326 326 327 328 325 325 325 325 325 323 323 322 323 323
293 290 289 291 296 296 295 292 295 297 297 296 297 298 297 298 300 301 303 304 304 304 305 305 306 307 309 309 310 310 313 320 326 329 328 328 327 326 323 323 325 325 324 324 324 323 323 321 322
290 289 288 289 293 294 293 294 296 296 295 295 296 296 297 297 297 301 301 301 303 304 303 304 304 305 308 309 309 311 313 319 325 329 328 328 326 326 324 323 325 325 323 323 324 323 323 322 321
292 290 288 290 293 292 292 293 295 294 295 295 295 296 296 297 299 300 299 299 300 303 301 301 302 304 305 306 306 309 313 321 324 328 328 327 327 325 324 322 323 323 322 322 324 323 322 321 322
291 288 288 290 291 291 292 292 294 294 294 294 294 295 295 296 296 298 300 299 298 299 299 300 301 302 303 305 308 310 316 323 327 328 327 327 325 324 324 322 320 320 321 323 323 322 320 320 322
289 289 287 288 291 291 290 290 290 293 294 295 296 296 295 294 293 295 298 299 298 297 299 301 301 301 302 305 309 310 315 318 325 325 326 327 326 324 323 322 321 320 321 322 322 322 320 319 322
285 290 289 288 288 286 290 288 284 290 291 293 294 295 294 293 294 295 297 298 298 298 301 301 301 301 301 305 308 309 313 319 324 326 326 326 327 325 324 321 321 320 321 321 322 322 322 321 319
286 291 290 288 288 287 285 285 290 286 288 291 293 293 292 293 293 294 295 297 298 298 298 301 300 301 300 304 309 311 313 320 323 320 318 323 324 323 322 322 320 320 321 321 322 321 319 316 316
292 290 288 289 288 282 282 284 290 288 290 291 293 292 291 292 293 294 295 296 296 298 298 297 299 299 299 302 308 314 313 312 311 311 310 312 314 316 316 316 316 316 314 314 313 314 312 312 311
290 286 284 282 281 282 283 282 289 290 291 293 292 291 291 292 292 293 293 293 294 295 296 295 297 297 298 299 302 307 308 309 309 309 309 309 309 311 311 312 311 312 312 312 312 311 311 310 309
288 286 282 279 279 281 282 281 289 291 292 293 294 291 290 291 291 292 292 293 294 294 295 295 295 296 297 297 299 301 304 306 307 307 307 307 308 308 309 310 310 310 310 309 309 308 307 307 307
287 284 286 281 277 280 283 286 290 290 291 292 292 290 290 290 290 291 292 292 293 294 295 294 294 295 295 296 297 298 299 301 301 304 305 305 306 306 306 307 307 306 306 305 305 303 302 303 303
288 289 283 284 278 277 281 281 286 287 289 291 290 290 290 290 290 291 291 291 292 294 295 296 295 294 294 295 295 296 297 297 298 299 299 300 301 302 301 302 302 302 302 302 302 301 301 300 299
286 285 285 284 283 278 278 284 290 291 292 292 292 292 290 290 290 290 291 291 292 294 294 295 296 295 294 294 294 294 294 295 296 295 296 297 297 298 298 298 298 298 298 298 297 296 296 295 295
287 286 286 282 279 281 280 282 289 292 292 294 294 292 291 290 291 290 290 291 291 292 293 294 295 295 296 295 294 294 294 294 294 294 294 295 295 295 295 295 294 294 294 294 293 293 294 293 292
Wind_Speed
9 6 3 4 5 4 2 2 3 1 1 6 11 7 7 8 6 5 12 12 20 11 9 14 11 12 11 11 9 8 9 11 13 12 13 15 15 14 14 12 10 8 9 10 6 6 7 7 5
5 2 3 1 5 5 5 0 3 3 10 13 5 1 4 6 8 8 10 23 19 10 9 11 12 13 13 11 11 11 10 11 12 13 13 14 14 14 14 12 10 10 10 11 8 9 7 7 5
2 3 3 3 2 3 2 2 5 8 7 11 4 8 4 7 10 11 18 19 14 8 8 10 7 12 13 13 12 11 13 11 11 12 13 13 13 13 12 11 10 9 11 11 11 8 7 5 5
2 4 3 5 3 3 2 3 8 8 2 8 6 5 7 11 8 13 18 17 13 9 7 7 8 13 13 13 13 12 10 12 12 12 11 11 12 11 11 10 9 10 10 10 10 10 8 5 3
0 2 3 3 3 2 2 6 5 6 3 7 8 2 6 5 13 17 18 16 14 11 8 10 9 11 12 13 14 13 12 12 13 14 12 12 12 11 11 10 10 11 10 10 9 8 8 6 4
3 2 4 5 4 3 2 7 3 4 4 5 5 5 4 5 21 20 19 16 13 14 12 10 8 7 11 13 13 13 13 13 13 13 13 12 13 13 12 10 8 10 10 9 9 8 7 6 5
1 3 2 2 3 4 2 8 3 6 5 5 8 6 2 7 21 20 17 14 13 12 13 15 12 10 9 10 12 12 12 11 10 11 13 13 12 13 12 11 8 10 9 10 9 7 6 6 5
1 1 4 1 4 3 3 4 4 7 4 3 8 5 6 19 21 18 15 13 13 10 11 11 11 16 13 14 12 12 11 10 10 11 11 11 11 10 10 9 10 11 10 10 8 7 6 5 4
1 3 3 3 3 4 2 4 3 3 4 3 5 7 11 18 18 17 15 14 13 12 13 11 11 10 12 14 12 12 11 11 10 11 11 11 9 13 11 12 11 10 9 10 9 7 6 3 2
2 1 3 2 2 2 3 2 4 4 4 2 5 11 14 15 16 17 16 15 17 17 16 13 11 11 11 9 13 12 13 12 12 11 14 11 9 10 10 8 8 9 9 8 8 7 4 5 5
3 3 5 3 2 1 1 1 2 5 0 6 14 17 16 15 14 14 15 15 16 16 13 14 14 13 10 9 6 7 6 8 9 15 13 13 8 5 5 6 7 9 9 5 7 8 7 6 4
4 4 2 3 1 1 2 3 2 6 5 8 10 12 14 15 13 14 14 16 17 17 17 15 15 14 14 8 8 7 8 9 8 9 15 9 6 6 6 6 8 8 7 8 7 5 5 6 6
5 5 4 3 2 3 1 2 1 2 7 7 9 10 13 14 14 13 13 13 15 16 17 17 16 14 13 13 9 7 8 8 9 9 11 10 11 8 7 6 8 8 7 7 7 6 5 5 6
3 5 5 2 2 1 5 2 4 1 9 9 9 11 12 14 14 14 16 16 15 15 17 17 17 15 14 13 14 10 8 8 9 9 8 8 9 7 11 11 10 9 8 7 7 6 5 5 5
5 5 2 1 1 2 2 4 3 5 8 11 12 12 13 14 15 14 14 17 16 14 16 17 16 15 14 14 12 11 10 9 9 8 10 12 8 9 12 10 10 9 8 9 7 6 5 5 5
2 2 4 3 2 2 3 0 3 4 9 11 13 13 14 17 17 15 15 16 16 16 17 16 15 17 14 11 11 9 11 11 8 9 9 13 12 9 12 9 9 9 8 8 7 7 6 5 5
2 3 3 2 1 2 2 4 4 3 7 10 12 13 12 14 16 16 15 15 15 15 16 17 17 18 17 13 10 10 12 12 8 9 10 15 14 14 9 7 9 10 8 8 7 6 7 6 6
5 3 2 4 2 3 6 9 2 3 5 7 8 9 12 13 14 14 16 15 16 15 17 18 13 15 17 12 9 8 9 11 8 9 10 15 11 15 13 9 11 9 8 8 8 8 7 5 5
4 2 1 2 0 6 4 9 7 4 4 5 6 8 10 12 13 13 12 13 16 17 15 17 17 15 12 9 7 8 10 10 8 7 12 13 13 12 11 6 6 9 9 9 10 8 8 6 5
2 1 2 4 3 4 7 13 8 7 4 5 7 9 10 11 13 14 15 16 14 14 14 14 16 16 13 9 7 7 8 7 8 7 10 12 12 13 13 11 9 6 5 9 9 9 5 5 6
3 2 2 3 6 2 10 6 5 5 8 8 9 8 7 10 13 14 14 14 13 15 16 14 14 15 13 13 7 7 8 9 8 8 9 10 13 12 13 13 10 8 6 7 9 8 9 6 6
3 4 3 1 6 4 5 5 4 6 8 8 8 7 8 10 10 12 13 16 14 16 17 18 16 16 15 14 7 10 7 8 7 8 7 7 12 12 12 11 10 9 7 6 6 6 7 7 7
3 3 1 1 2 5 2 2 1 3 6 8 6 5 6 8 9 12 13 15 14 15 15 18 17 18 20 17 8 5 7 5 4 6 6 3 8 9 10 10 10 8 6 4 3 5 4 2 1
6 3 2 1 2 3 3 3 4 6 5 3 4 4 5 7 8 10 11 13 14 15 16 17 19 20 22 18 15 4 6 9 8 8 8 5 6 6 8 9 9 10 10 10 9 10 10 6 6
3 3 1 2 3 2 3 4 8 5 7 5 4 4 4 5 6 9 13 14 15 15 17 15 20 20 21 20 18 13 12 13 11 10 8 10 9 9 10 14 13 11 13 12 12 12 10 9 6
5 3 2 4 3 2 2 7 2 2 3 5 4 5 4 4 5 7 10 11 13 14 14 16 16 18 19 19 17 16 14 10 10 11 11 10 10 11 14 15 16 16 16 12 12 9 9 6 4
4 4 2 3 1 4 3 6 9 5 7 8 8 7 6 3 3 5 7 9 11 12 13 12 13 14 18 19 17 18 15 17 13 15 15 12 13 13 16 15 15 16 11 13 10 6 8 8 8
4 5 3 1 3 5 4 6 6 8 14 12 11 10 7 3 1 4 6 7 9 9 10 12 11 11 12 14 15 13 16 17 15 15 15 15 13 13 13 12 12 11 12 10 9 8 8 9 8
5 4 2 3 3 3 4 5 4 9 11 15 14 10 7 5 3 2 4 5 6 8 10 10 12 12 12 12 12 13 13 14 13 13 13 13 13 12 12 11 12 11 11 11 10 10 8 10 8
1 4 8 4 5 2 2 8 5 6 5 10 12 11 9 5 5 2 1 3 5 7 8 9 10 11 11 11 11 12 12 12 13 13 13 12 12 12 11 10 12 11 10 10 11 11 10 11 10
Wind_Direction
309 299 270 232 232 243 194 131 334 54 219 360 308 270 35 28 360 18 334 353 334 302 219 191 190 179 178 177 180 179 174 170 169 171 169 165 163 158 154 150 147 151 133 130 150 131 119 112 142
302 263 221 149 249 236 110 69 169 346 338 324 310 281 176 82 27 329 345 339 324 309 221 207 180 181 178 177 181 177 183 180 180 180 181 173 167 159 157 154 158 152 154 135 140 129 144 148 145
254 282 221 233 255 288 103 76 332 328 333 351 339 37 36 0 1 351 340 325 328 318 232 219 174 188 180 183 186 188 182 187 184 181 184 176 166 157 157 162 168 153 143 146 147 136 148 152 163
221 177 141 246 223 85 30 2 346 332 98 18 351 83 95 54 1 341 334 336 332 328 269 214 225 200 187 185 187 192 187 190 182 180 173 169 159 164 167 172 181 158 153 156 145 152 152 162 168
146 213 179 204 175 122 100 10 341 338 355 4 342 81 154 45 8 356 348 349 344 328 302 258 225 220 202 196 188 192 191 194 190 184 169 170 167 170 170 183 205 155 163 156 157 160 159 161 164
138 269 209 223 166 139 114 2 301 337 354 7 359 317 161 50 4 351 345 345 355 353 325 275 253 274 217 207 199 196 198 198 201 188 176 180 172 171 175 191 215 177 169 160 169 168 174 168 167
174 218 170 156 149 175 66 345 3 340 339 19 335 292 315 358 351 339 334 339 347 359 359 351 312 249 236 230 214 204 205 205 213 202 189 183 181 181 183 185 204 188 184 172 169 182 183 184 187
35 230 148 147 174 124 32 350 359 358 31 336 348 4 335 336 335 329 327 333 342 351 357 348 345 345 276 238 221 211 208 206 200 206 196 188 183 187 180 181 186 199 185 174 180 190 198 204 206
260 213 162 129 181 111 29 345 57 353 319 47 18 19 325 327 330 335 337 335 338 340 345 341 338 339 336 297 244 223 211 210 206 202 197 193 195 193 183 200 171 196 173 168 179 199 212 217 215
357 259 88 66 72 38 18 332 337 300 341 334 336 335 338 334 337 339 341 337 336 333 331 332 332 333 328 317 296 240 224 218 218 218 208 204 197 195 197 193 179 183 160 175 183 203 207 223 245
36 65 126 132 52 348 9 278 357 317 326 7 329 324 331 330 335 336 334 333 328 325 321 325 323 320 315 306 308 292 235 224 222 218 217 207 182 180 192 197 196 198 182 197 218 202 227 238 261
112 89 84 114 93 158 352 330 89 44 9 324 311 322 319 325 331 335 329 330 327 325 324 323 322 316 311 303 298 285 263 229 219 216 214 190 183 171 192 193 198 206 198 196 225 225 241 251 255
93 134 110 107 132 57 351 37 207 97 355 324 331 319 326 330 332 331 325 328 326 322 321 323 322 314 307 302 293 284 281 236 218 210 201 197 190 185 185 194 196 202 199 203 208 224 232 238 254
102 131 116 69 62 94 353 109 206 58 342 336 332 336 337 333 333 330 337 332 335 326 320 319 317 313 310 303 295 286 276 255 226 193 188 189 203 177 202 202 204 200 197 202 210 213 227 245 253
120 135 146 166 10 208 322 200 211 343 328 339 347 343 339 345 343 343 330 323 329 328 317 312 312 309 305 300 292 288 280 276 220 201 181 183 180 203 214 204 202 199 193 194 203 207 213 232 239
135 181 217 154 319 141 299 336 154 348 328 350 355 350 349 349 340 339 328 333 324 323 323 314 309 307 297 290 289 281 282 274 251 190 192 191 184 212 215 212 207 195 191 195 199 200 204 221 228
159 234 224 206 137 314 305 310 164 324 336 358 0 2 356 352 346 337 336 334 331 323 325 323 316 306 301 291 283 274 266 268 259 188 188 190 193 184 210 207 215 192 190 198 197 203 211 214 223
181 203 226 273 134 257 289 264 239 306 342 346 360 0 8 7 357 345 342 335 333 330 329 325 319 311 307 297 280 268 250 250 249 211 190 196 201 202 203 196 212 198 190 200 198 208 206 223 228
110 143 255 259 345 307 253 273 299 223 271 340 343 336 341 351 0 3 345 339 345 343 332 325 324 320 312 293 284 271 252 228 219 198 191 189 191 187 184 165 215 202 196 201 203 206 213 212 225
133 160 255 276 242 291 288 283 275 216 264 282 306 311 325 327 332 341 348 347 345 332 332 327 322 316 313 297 265 263 268 265 204 180 192 197 193 185 192 173 171 186 211 208 204 197 190 212 205
182 202 200 294 325 245 304 259 205 219 250 267 271 288 312 332 340 342 340 346 342 337 336 339 329 326 322 307 278 253 253 249 205 185 190 190 183 182 185 182 173 171 205 203 196 198 206 206 206
239 187 176 312 329 301 347 294 232 226 256 259 275 300 325 338 348 348 344 347 348 340 342 349 345 336 335 327 295 248 247 214 194 191 193 178 188 186 176 173 177 175 182 205 200 197 221 224 224
77 152 167 351 285 302 158 254 169 213 255 238 242 283 319 334 343 343 344 348 353 347 342 344 352 352 351 345 319 215 239 222 88 81 94 153 182 171 175 172 166 148 171 169 176 156 131 70 136
132 141 96 92 268 248 114 312 236 198 201 191 216 265 307 335 345 349 349 349 352 359 353 346 353 4 359 357 6 146 99 90 90 85 83 77 81 84 86 99 106 110 104 96 90 96 81 70 74
198 212 301 250 217 288 147 246 269 223 213 207 218 256 299 323 353 354 358 357 357 360 359 351 355 6 2 8 16 40 59 75 82 82 86 80 77 81 83 86 88 81 89 82 87 88 81 70 64
191 249 241 273 276 341 139 236 254 241 221 216 235 260 277 301 5 8 1 359 360 -0 5 2 357 2 7 14 20 33 39 68 65 75 79 76 79 79 83 83 82 82 77 76 65 64 72 73 71
153 205 45 108 80 274 212 245 241 199 210 220 226 244 250 273 8 14 9 9 5 4 10 14 2 10 10 11 16 30 35 52 56 63 71 69 69 70 70 71 74 74 72 68 69 65 71 78 66
273 138 137 206 241 256 224 266 247 207 216 213 223 230 232 234 291 34 19 15 10 11 11 20 29 23 21 20 19 24 31 35 40 49 55 57 58 58 62 69 73 76 77 84 90 83 78 78 71
161 207 190 302 249 261 293 241 197 195 196 198 207 217 217 201 210 38 28 22 13 24 21 23 25 32 36 40 28 28 33 40 45 46 49 58 57 61 66 68 75 71 76 83 85 81 76 80 76
261 236 192 225 191 249 327 270 169 203 201 200 192 197 203 197 184 179 71 30 38 32 30 30 31 32 41 48 50 44 40 44 47 44 45 52 61 56 63 67 70 69 69 72 75 78 75 76 72